GW6756 Weather Reports


time (UTC)temp
F
wind
direction
speed
knots
gust
knots
rain 1hr
in
rain 24hr
in
rain mn
in
humidity
%
barometer
mb
20260507011055 66 141 0.0 0.9 0.00 0.10 0.10 78 1009.2
20260507010550 66 140 0.0 0.0 0.00 0.10 0.10 78 1009.3
20260507010046 66 138 0.0 0.9 0.00 0.10 0.10 78 1009.4
20260507005544 66 125 0.0 0.0 0.00 0.10 0.10 78 1009.4
20260507005040 66 97 0.0 0.0 0.00 0.10 0.10 78 1009.2
20260507004537 66 82 0.0 0.9 0.00 0.10 0.10 77 1009.0
20260507004035 67 138 0.0 0.0 0.00 0.10 0.10 77 1008.6
20260507003530 67 142 0.9 0.9 0.00 0.10 0.10 76 1008.7
20260507003025 67 184 0.0 0.0 0.00 0.10 0.10 76 1008.5
20260507002522 67 143 0.0 0.0 0.00 0.10 0.10 76 1008.8
20260507002018 67 222 0.9 0.9 0.00 0.10 0.10 76 1008.6
20260507001515 67 100 0.0 0.0 0.00 0.10 0.10 76 1008.5
20260507001013 67 134 0.0 0.9 0.00 0.10 0.10 76 1008.4
20260507000508 67 39 0.9 1.7 0.00 0.10 0.10 75 1008.4
20260507000004 67 141 0.0 0.0 0.00 0.10 0.10 74 1008.3
20260506235502 68 124 0.0 0.9 0.00 0.10 0.10 74 1008.3
20260506234957 68 210 1.7 2.6 0.00 0.10 0.10 74 1008.4
20260506234455 68 159 0.9 0.9 0.00 0.10 0.10 74 1008.4
20260506233952 68 164 0.0 0.9 0.00 0.10 0.10 75 1008.3
20260506233449 68 140 0.0 0.9 0.00 0.10 0.10 74 1008.4
20260506232945 68 142 0.9 1.7 0.00 0.10 0.10 74 1008.3
20260506232442 68 136 0.0 0.0 0.00 0.10 0.10 73 1008.1
20260506231937 68 149 0.0 0.0 0.00 0.10 0.10 74 1008.4
20260506231435 68 159 0.0 0.0 0.00 0.10 0.10 74 1008.5
20260506230932 68 155 0.9 1.7 0.00 0.10 0.10 73 1008.4
20260506230428 68 204 2.6 3.5 0.00 0.10 0.10 73 1008.1
20260506225925 68 188 0.0 0.9 0.00 0.10 0.10 72 1008.2
20260506225422 69 210 4.3 6.1 0.00 0.10 0.10 71 1008.2
20260506224919 69 167 2.6 2.6 0.00 0.10 0.10 70 1008.1
20260506224417 69 183 0.9 0.9 0.00 0.10 0.10 72 1008.3
20260506223913 69 204 1.7 2.6 0.00 0.10 0.10 71 1008.2
20260506223408 69 147 0.0 0.0 0.00 0.10 0.10 73 1008.1
20260506222906 69 190 0.9 1.7 0.00 0.10 0.10 71 1007.9
20260506222402 70 163 1.7 1.7 0.00 0.10 0.10 70 1008.2
20260506221859 69 207 2.6 2.6 0.00 0.10 0.10 71 1008.2
20260506221356 68 216 1.7 1.7 0.00 0.10 0.10 72 1008.2
20260506220854 68 140 0.9 1.7 0.00 0.10 0.10 73 1008.3
20260506220349 68 201 1.7 3.5 0.00 0.10 0.10 72 1008.0
20260506215846 68 136 0.0 0.0 0.00 0.10 0.10 73 1007.9
20260506215342 69 212 4.3 6.1 0.00 0.10 0.10 72 1008.0
20260506214838 70 357 3.5 5.2 0.00 0.10 0.10 70 1007.8
20260506214335 69 183 0.9 0.9 0.00 0.10 0.10 72 1007.9
20260506213833 68 147 6.1 9.6 0.00 0.10 0.10 72 1007.9
20260506213330 68 338 1.7 2.6 0.00 0.10 0.10 72 1007.9
20260506212827 68 75 0.9 0.9 0.00 0.10 0.10 73 1007.9
20260506212323 68 138 1.7 2.6 0.00 0.10 0.10 73 1007.9
20260506211818 68 110 2.6 2.6 0.00 0.10 0.10 73 1007.8
20260506211314 68 66 1.7 1.7 0.00 0.10 0.10 73 1007.6
20260506210812 68 55 4.3 7.0 0.00 0.10 0.10 72 1007.8
20260506210309 68 114 4.3 5.2 0.00 0.10 0.10 72 1007.9
20260506205806 68 167 1.7 2.6 0.00 0.10 0.10 72 1007.7
20260506205305 68 176 1.7 2.6 0.00 0.10 0.10 72 1007.7
20260506204758 68 149 3.5 7.0 0.00 0.10 0.10 72 1007.6
20260506204256 68 176 1.7 2.6 0.00 0.10 0.10 73 1007.7
20260506203754 68 18 1.7 2.6 0.00 0.10 0.10 73 1007.6
20260506203251 67 212 5.2 8.7 0.00 0.10 0.10 75 1007.6
20260506202748 66 159 0.9 0.9 0.00 0.10 0.10 75 1007.6
20260506202244 66 186 1.7 1.7 0.00 0.10 0.10 76 1007.7
20260506201741 66 124 2.6 5.2 0.00 0.10 0.10 75 1007.7
20260506201238 66 92 3.5 5.2 0.00 0.10 0.10 76 1007.7
20260506200735 67 198 1.7 2.6 0.00 0.10 0.10 75 1007.8
20260506200231 67 176 2.6 2.6 0.00 0.10 0.10 75 1007.6
20260506195728 66 166 0.9 1.7 0.00 0.10 0.10 76 1007.8
20260506195224 66 133 1.7 1.7 0.00 0.10 0.10 76 1007.8
20260506194722 66 92 0.9 1.7 0.00 0.10 0.10 76 1007.9
20260506194218 65 274 1.7 1.7 0.00 0.10 0.10 78 1007.9
20260506193716 65 216 1.7 1.7 0.00 0.10 0.10 78 1008.0
20260506193213 65 127 1.7 1.7 0.00 0.10 0.10 78 1008.2
20260506192709 64 133 1.7 1.7 0.00 0.10 0.10 79 1008.1
20260506192206 64 339 0.9 0.9 0.00 0.10 0.10 79 1008.2
20260506191703 64 242 1.7 3.5 0.00 0.10 0.10 79 1008.2
20260506191158 64 178 2.6 7.0 0.00 0.10 0.10 79 1008.4
20260506190656 64 146 3.5 5.2 0.00 0.10 0.10 79 1008.4
20260506190153 64 355 0.9 1.7 0.00 0.10 0.10 79 1008.5
20260506185650 64 212 2.6 3.5 0.00 0.10 0.10 79 1008.4
20260506185146 64 235 2.6 3.5 0.00 0.10 0.10 79 1008.5
20260506184644 64 348 1.7 2.6 0.00 0.10 0.10 79 1008.5
20260506184141 64 353 2.6 6.1 0.00 0.10 0.10 80 1008.7
20260506183637 64 253 1.7 3.5 0.00 0.10 0.10 80 1008.6
20260506183133 64 233 1.7 3.5 0.00 0.10 0.10 80 1008.6
20260506182631 64 227 1.7 2.6 0.00 0.10 0.10 80 1008.6
20260506182128 64 138 0.0 0.9 0.00 0.10 0.10 79 1008.8
20260506181626 64 128 0.0 0.9 0.00 0.10 0.10 79 1008.6
20260506181123 64 202 1.7 3.5 0.00 0.10 0.10 79 1008.6
20260506180619 64 176 2.6 5.2 0.00 0.10 0.10 79 1008.7
20260506180116 64 124 0.9 1.7 0.00 0.10 0.10 80 1008.7
20260506175612 64 331 2.6 3.5 0.00 0.10 0.10 80 1008.8
20260506175108 64 48 3.5 6.1 0.00 0.10 0.10 79 1008.7
20260506174608 64 224 1.7 1.7 0.00 0.10 0.10 80 1008.9
20260506174103 64 192 0.9 0.9 0.00 0.10 0.10 81 1009.0
20260506173601 63 217 3.5 3.5 0.00 0.10 0.10 80 1009.1
20260506173058 63 108 1.7 1.7 0.00 0.10 0.10 81 1009.0
20260506172555 64 64 4.3 6.1 0.00 0.10 0.10 80 1009.2
20260506172051 64 199 2.6 3.5 0.00 0.10 0.10 81 1009.0
20260506171549 64 315 5.2 7.8 0.00 0.10 0.10 81 1008.9
20260506171047 64 144 3.5 3.5 0.00 0.10 0.10 81 1009.0
20260506170544 64 114 1.7 1.7 0.00 0.10 0.10 84 1008.9
20260506170041 64 179 2.6 3.5 0.00 0.10 0.10 83 1009.1
20260506165539 64 10 0.9 1.7 0.00 0.10 0.10 83 1009.0
20260506165035 63 202 1.7 2.6 0.00 0.10 0.10 84 1009.0
20260506164532 63 94 0.9 0.9 0.00 0.10 0.10 85 1009.2
20260506164030 63 148 1.7 2.6 0.05 0.10 0.10 85 1009.2
20260506163525 63 206 3.5 3.5 0.05 0.10 0.10 85 1009.0
20260506163021 63 131 1.7 2.6 0.00 0.09 0.09 86 1009.2
20260506162518 62 149 0.0 0.9 0.00 0.09 0.09 86 1009.5
20260506162015 62 130 0.0 0.0 0.07 0.09 0.09 86 1010.0
20260506161513 62 119 1.7 1.7 0.12 0.09 0.09 85 1010.1
20260506161010 62 170 0.9 2.6 0.05 0.08 0.08 83 1010.2
20260506160508 63 190 2.6 2.6 0.07 0.07 0.07 83 1010.4
20260506160005 63 113 1.7 3.5 0.12 0.07 0.07 82 1010.5
20260506155503 63 136 0.0 0.9 0.05 0.06 0.06 83 1010.4
20260506153634 63 149 0.0 0.0 0.07 0.03 0.03 82 1010.4
20260506153131 63 198 0.9 1.7 0.12 0.03 0.03 81 1010.3
20260506152628 64 128 0.9 1.7 0.12 0.02 0.02 79 1010.3
20260506152126 64 135 1.7 2.6 0.07 0.01 0.01 77 1010.3
20260506151624 65 199 1.7 1.7 0.00 0.00 0.00 75 1010.5
20260506151121 66 162 0.9 0.9 0.00 0.00 0.00 74 1010.2
20260506150618 66 13 0.9 3.5 0.00 0.00 0.00 73 1010.1
20260506150115 66 138 0.0 0.9 0.00 0.00 0.00 73 1009.9
20260506145612 66 208 1.7 2.6 0.00 0.00 0.00 72 1010.1
20260506145108 66 175 3.5 3.5 0.00 0.00 0.00 72 1010.2
20260506144605 67 203 0.9 1.7 0.00 0.00 0.00 72 1010.6
20260506144102 67 157 1.7 2.6 0.00 0.00 0.00 70 1010.4
20260506143600 68 244 4.3 5.2 0.00 0.00 0.00 68 1010.3
20260506143058 68 133 0.9 0.9 0.00 0.00 0.00 67 1010.6
20260506142555 68 191 1.7 1.7 0.00 0.00 0.00 67 1010.3
20260506142054 68 100 0.9 0.9 0.00 0.00 0.00 67 1010.4
20260506141551 68 25 2.6 3.5 0.00 0.00 0.00 66 1010.3
20260506141049 68 227 3.5 3.5 0.00 0.00 0.00 66 1010.4
20260506140546 69 278 1.7 1.7 0.00 0.00 0.00 67 1010.2
20260506140044 69 159 3.5 5.2 0.00 0.00 0.00 65 1010.3
20260506135540 69 129 1.7 3.5 0.00 0.00 0.00 66 1010.2
20260506135036 68 244 3.5 3.5 0.00 0.00 0.00 66 1010.1
20260506134533 68 155 0.9 0.9 0.00 0.00 0.00 68 1010.3
20260506134029 68 170 4.3 6.1 0.00 0.00 0.00 68 1010.4
20260506133526 67 209 1.7 1.7 0.00 0.00 0.00 68 1010.3
20260506133023 67 194 4.3 6.1 0.00 0.00 0.00 68 1010.2
20260506132520 67 188 4.3 6.1 0.00 0.00 0.00 68 1010.6
20260506132018 67 142 1.7 2.6 0.00 0.00 0.00 68 1010.2
20260506131515 67 210 1.7 1.7 0.00 0.00 0.00 69 1010.6
20260506131011 67 85 1.7 2.6 0.00 0.00 0.00 69 1010.6
20260506130508 67 131 1.7 1.7 0.00 0.00 0.00 69 1010.8
20260506130006 68 161 1.7 3.5 0.00 0.00 0.00 68 1010.6
20260506125504 68 148 1.7 2.6 0.00 0.00 0.00 68 1010.6
20260506125001 68 213 0.9 0.9 0.00 0.00 0.00 68 1010.5
20260506124459 67 229 3.5 6.1 0.00 0.00 0.00 70 1010.5
20260506123957 66 315 1.7 1.7 0.00 0.00 0.00 71 1010.7
20260506123454 67 199 1.7 2.6 0.00 0.00 0.00 70 1010.5
20260506122952 67 289 3.5 5.2 0.00 0.00 0.00 70 1010.4
20260506122448 67 342 0.9 1.7 0.00 0.00 0.00 70 1010.4
20260506121947 66 258 1.7 2.6 0.00 0.00 0.00 70 1010.3
20260506121443 66 109 0.9 0.9 0.00 0.00 0.00 71 1010.3
20260506120940 66 115 3.5 6.1 0.00 0.00 0.00 71 1010.4
20260506120438 66 176 6.1 7.8 0.00 0.00 0.00 72 1010.5
20260506115935 65 183 1.7 2.6 0.00 0.00 0.00 73 1010.4
20260506115433 65 198 0.9 2.6 0.00 0.00 0.00 72 1010.4
20260506114931 65 188 1.7 2.6 0.00 0.00 0.00 72 1010.5
20260506114428 65 176 2.6 2.6 0.00 0.00 0.00 73 1010.6
20260506113927 65 196 4.3 7.0 0.00 0.00 0.00 72 1010.4
20260506113424 65 167 2.6 3.5 0.00 0.00 0.00 73 1010.5
20260506112920 65 178 0.0 0.9 0.00 0.00 0.00 73 1010.4
20260506112418 65 201 3.5 3.5 0.00 0.00 0.00 74 1010.6
20260506111915 65 80 3.5 6.1 0.00 0.00 0.00 73 1010.5
20260506111413 65 168 5.2 7.0 0.00 0.00 0.00 73 1010.7
20260506110910 65 232 1.7 2.6 0.00 0.00 0.00 73 1010.4
20260506110408 65 229 1.7 2.6 0.00 0.00 0.00 74 1010.4
20260506105904 65 131 0.9 0.9 0.00 0.00 0.00 74 1010.4
20260506105400 65 137 1.7 1.7 0.00 0.00 0.00 74 1010.2
20260506104858 64 241 2.6 3.5 0.00 0.00 0.00 74 1010.3
20260506104356 65 224 1.7 1.7 0.00 0.00 0.00 74 1010.3
20260506103853 65 186 3.5 5.2 0.00 0.00 0.00 74 1010.3
20260506103351 64 259 1.7 2.6 0.00 0.00 0.00 74 1010.3
20260506102848 64 317 0.9 1.7 0.00 0.00 0.00 74 1010.1
20260506102346 64 227 0.9 0.9 0.00 0.00 0.00 75 1010.3
20260506101843 64 231 2.6 3.5 0.00 0.00 0.00 74 1010.1
20260506101339 64 98 0.9 1.7 0.00 0.00 0.00 75 1010.1
20260506100837 64 164 0.9 0.9 0.00 0.00 0.00 75 1010.3
20260506100335 64 216 1.7 2.6 0.00 0.00 0.00 75 1010.3
20260506095833 64 247 2.6 5.2 0.00 0.00 0.00 75 1010.3
20260506095330 64 201 4.3 7.0 0.00 0.00 0.00 75 1010.2
20260506094826 64 174 2.6 3.5 0.00 0.00 0.00 75 1010.3
20260506094325 64 189 1.7 2.6 0.00 0.00 0.00 75 1009.9
20260506093823 64 250 4.3 5.2 0.00 0.00 0.00 74 1010.1
20260506093320 64 230 2.6 3.5 0.00 0.00 0.00 75 1010.1
20260506092818 64 169 2.6 2.6 0.00 0.00 0.00 75 1010.0
20260506092315 65 342 2.6 3.5 0.00 0.00 0.00 74 1009.9
20260506091812 64 242 0.9 1.7 0.00 0.00 0.00 74 1010.0
20260506091310 65 140 1.7 2.6 0.00 0.00 0.00 74 1010.0
20260506090807 65 121 3.5 5.2 0.00 0.00 0.00 74 1010.1
20260506090304 65 36 0.9 1.7 0.00 0.00 0.00 74 1010.1
20260506085801 65 169 4.3 5.2 0.00 0.00 0.00 74 1010.2
20260506085257 65 124 1.7 2.6 0.00 0.00 0.00 74 1010.4
20260506084754 65 133 0.9 0.9 0.00 0.00 0.00 75 1010.1
20260506084250 64 154 0.0 0.9 0.00 0.00 0.00 75 1010.3
20260506083747 64 138 1.7 2.6 0.00 0.00 0.00 75 1010.2
20260506083245 65 130 0.9 1.7 0.00 0.00 0.00 75 1010.4
20260506082742 65 155 0.9 1.7 0.00 0.00 0.00 75 1010.3
20260506082237 65 129 0.9 1.7 0.00 0.00 0.00 75 1010.4
20260506081736 64 287 1.7 2.6 0.00 0.00 0.00 75 1010.5
20260506081233 65 214 1.7 2.6 0.00 0.00 0.00 75 1010.5
20260506080731 65 212 1.7 2.6 0.00 0.00 0.00 74 1010.6
20260506080227 65 182 0.0 0.9 0.00 0.00 0.00 75 1010.5
20260506073211 66 2 0.9 0.9 0.00 0.00 0.00 73 1010.5
20260506072708 66 129 0.9 0.9 0.00 0.00 0.00 73 1010.6
20260506072205 67 148 0.9 1.7 0.00 0.00 0.00 72 1010.5
20260506071702 66 192 0.9 1.7 0.00 0.00 0.00 72 1010.7
20260506071200 66 136 1.7 2.6 0.00 0.00 0.00 72 1010.6
20260506070657 67 18 1.7 3.5 0.00 0.00 0.00 72 1010.5
20260506070154 66 184 1.7 1.7 0.00 0.00 0.00 72 1010.5
20260506062131 67 137 3.5 5.2 0.00 0.00 0.00 71 1010.8
20260506061627 67 164 5.2 8.7 0.00 0.00 0.00 71 1010.9
20260506061125 67 263 4.3 6.1 0.00 0.00 0.00 71 1011.0
20260506060623 67 247 2.6 2.6 0.00 0.00 0.00 71 1010.9
20260506060120 67 229 1.7 2.6 0.00 0.00 0.00 71 1010.8
20260506051052 68 83 2.6 2.6 0.00 0.00 0.00 67 1011.1
20260506050549 68 218 3.5 3.5 0.00 0.00 0.00 67 1011.2
20260506045040 68 170 2.6 3.5 0.00 0.00 0.00 67 1011.4
20260506044538 68 240 1.7 1.7 0.00 0.00 0.00 66 1011.1
20260506044034 68 167 3.5 3.5 0.00 0.00 0.00 66 1011.4
20260506043532 68 169 1.7 2.6 0.00 0.00 0.00 66 1011.2
20260506043030 68 135 1.7 3.5 0.00 0.00 0.00 66 1011.4
20260506042529 68 199 1.7 2.6 0.00 0.00 0.00 65 1011.4
20260506042027 68 286 1.7 2.6 0.00 0.00 0.00 65 1011.3
20260506041525 69 178 1.7 2.6 0.00 0.00 0.00 64 1011.2
20260506041021 68 274 2.6 5.2 0.00 0.00 0.00 64 1011.4
20260506040519 69 161 1.7 1.7 0.00 0.00 0.00 63 1011.3
20260506040015 69 223 2.6 3.5 0.00 0.00 0.00 63 1011.2
20260506035512 69 333 1.7 3.5 0.00 0.00 0.00 62 1011.2
20260506035008 69 239 1.7 2.6 0.00 0.00 0.00 62 1011.0
20260506034506 69 201 1.7 2.6 0.00 0.00 0.00 61 1011.1
20260506034003 69 149 7.0 7.8 0.00 0.00 0.00 61 1011.3
20260506033500 69 145 4.3 7.8 0.00 0.00 0.00 60 1011.1
20260506032957 69 178 2.6 3.5 0.00 0.00 0.00 61 1011.1
20260506032455 70 136 2.6 5.2 0.00 0.00 0.00 60 1011.2
20260506031950 70 188 2.6 2.6 0.00 0.00 0.00 60 1011.0
20260506031448 70 160 3.5 3.5 0.00 0.00 0.00 59 1011.2
20260506030946 70 282 2.6 5.2 0.00 0.00 0.00 59 1011.1
20260506030444 70 183 0.9 1.7 0.00 0.00 0.00 59 1011.3
20260506025940 70 112 2.6 6.1 0.00 0.00 0.00 59 1011.3
20260506025437 70 271 3.5 5.2 0.00 0.00 0.00 59 1011.1
20260506024934 69 244 1.7 3.5 0.00 0.00 0.00 59 1011.2
20260506024431 70 183 0.0 0.0 0.00 0.00 0.00 59 1011.1
20260506023926 70 31 1.7 3.5 0.00 0.00 0.00 58 1011.5
20260506023424 70 206 1.7 2.6 0.00 0.00 0.00 59 1011.2
20260506022920 70 210 0.9 1.7 0.00 0.00 0.00 59 1011.3
20260506022418 70 324 1.7 1.7 0.00 0.00 0.00 59 1011.4
20260506021915 70 82 0.9 0.9 0.00 0.00 0.00 59 1011.6
20260506021413 70 192 0.9 2.6 0.00 0.00 0.00 59 1011.3
20260506020909 70 178 2.6 2.6 0.00 0.00 0.00 58 1011.4
20260506020408 70 122 2.6 5.2 0.00 0.00 0.00 58 1011.4
20260506015904 70 79 1.7 3.5 0.00 0.00 0.00 58 1011.5
20260506015402 71 105 1.7 2.6 0.00 0.00 0.00 57 1011.3
20260506014859 71 178 1.7 1.7 0.00 0.00 0.00 57 1011.3
20260506014355 71 226 2.6 3.5 0.00 0.00 0.00 56 1011.4
20260506013852 71 211 1.7 1.7 0.00 0.00 0.00 56 1011.2
20260506013350 71 123 1.7 1.7 0.00 0.00 0.00 55 1011.1
20260506012846 72 44 2.6 3.5 0.00 0.00 0.00 54 1011.1
20260506012343 72 340 0.9 2.6 0.00 0.00 0.00 52 1011.2
20260506011840 73 137 0.0 0.0 0.00 0.00 0.00 51 1010.9
20260506011337 73 118 0.9 0.9 0.00 0.00 0.00 49 1011.1